Year,Month,Day,Hour,Minute,Value (Times are PST for temperature in C)
2006,06,23,00,00,12.10
2006,06,23,00,01,12.10
2006,06,23,00,02,12.10
2006,06,23,00,03,12.10
2006,06,23,00,04,12.10
2006,06,23,00,05,12.10
2006,06,23,00,06,12.10
2006,06,23,00,07,12.10
2006,06,23,00,08,12.10
2006,06,23,00,09,12.10
2006,06,23,00,10,12.10
2006,06,23,00,11,12.10
2006,06,23,00,12,12.10
2006,06,23,00,13,12.10
2006,06,23,00,14,12.10
2006,06,23,00,15,12.10
2006,06,23,00,16,12.00
2006,06,23,00,17,12.00
2006,06,23,00,18,12.00
2006,06,23,00,19,12.00
2006,06,23,00,20,12.00
2006,06,23,00,21,11.90
2006,06,23,00,22,11.90
2006,06,23,00,23,11.90
2006,06,23,00,24,11.90
2006,06,23,00,25,11.90
2006,06,23,00,26,11.90
2006,06,23,00,27,11.90
2006,06,23,00,28,11.80
2006,06,23,00,29,11.80
2006,06,23,00,30,11.80
2006,06,23,00,31,11.80
2006,06,23,00,32,11.80
2006,06,23,00,33,11.80
2006,06,23,00,34,11.80
2006,06,23,00,35,11.80
2006,06,23,00,36,11.80
2006,06,23,00,37,11.80
2006,06,23,00,38,11.80
2006,06,23,00,39,11.80
2006,06,23,00,40,11.80
2006,06,23,00,41,11.70
2006,06,23,00,42,11.70
2006,06,23,00,43,11.70
2006,06,23,00,44,11.70
2006,06,23,00,45,11.70
2006,06,23,00,46,11.70
2006,06,23,00,47,11.70
2006,06,23,00,48,11.70
2006,06,23,00,49,11.70
2006,06,23,00,50,11.70
2006,06,23,00,51,11.70
2006,06,23,00,52,11.70
2006,06,23,00,53,11.70
2006,06,23,00,54,11.60
2006,06,23,00,55,11.60
2006,06,23,00,56,11.60
2006,06,23,00,57,11.60
2006,06,23,00,58,11.60
2006,06,23,00,59,11.60
2006,06,23,01,00,11.60
2006,06,23,01,01,11.60
2006,06,23,01,02,11.60
2006,06,23,01,03,11.60
2006,06,23,01,04,11.60
2006,06,23,01,05,11.60
2006,06,23,01,06,11.60
2006,06,23,01,07,11.60
2006,06,23,01,08,11.60
2006,06,23,01,09,11.60
2006,06,23,01,10,11.60
2006,06,23,01,11,11.60
2006,06,23,01,12,11.60
2006,06,23,01,13,11.60
2006,06,23,01,14,11.60
2006,06,23,01,15,11.60
2006,06,23,01,16,11.60
2006,06,23,01,17,11.60
2006,06,23,01,18,11.50
2006,06,23,01,19,11.40
2006,06,23,01,20,11.40
2006,06,23,01,21,11.40
2006,06,23,01,22,11.40
2006,06,23,01,23,11.40
2006,06,23,01,24,11.40
2006,06,23,01,25,11.40
2006,06,23,01,26,11.40
2006,06,23,01,27,11.40
2006,06,23,01,28,11.40
2006,06,23,01,29,11.40
2006,06,23,01,30,11.40
2006,06,23,01,31,11.40
2006,06,23,01,32,11.40
2006,06,23,01,33,11.40
2006,06,23,01,34,11.40
2006,06,23,01,35,11.40
2006,06,23,01,36,11.40
2006,06,23,01,37,11.40
2006,06,23,01,38,11.40
2006,06,23,01,39,11.40
2006,06,23,01,40,11.30
2006,06,23,01,41,11.30
2006,06,23,01,42,11.30
2006,06,23,01,43,11.30
2006,06,23,01,44,11.30
2006,06,23,01,45,11.30
2006,06,23,01,46,11.30
2006,06,23,01,47,11.30
2006,06,23,01,48,11.30
2006,06,23,01,49,11.30
2006,06,23,01,50,11.30
2006,06,23,01,51,11.30
2006,06,23,01,52,11.30
2006,06,23,01,53,11.30
2006,06,23,01,54,11.30
2006,06,23,01,55,11.30
2006,06,23,01,56,11.30
2006,06,23,01,57,11.30
2006,06,23,01,58,11.30
2006,06,23,01,59,11.30
2006,06,23,02,00,11.30
2006,06,23,02,01,11.30
2006,06,23,02,02,11.30
2006,06,23,02,03,11.30
2006,06,23,02,04,11.30
2006,06,23,02,05,11.30
2006,06,23,02,06,11.20
2006,06,23,02,07,11.20
2006,06,23,02,08,11.20
2006,06,23,02,09,11.20
2006,06,23,02,10,11.20
2006,06,23,02,11,11.20
2006,06,23,02,12,11.20
2006,06,23,02,13,11.20
2006,06,23,02,14,11.20
2006,06,23,02,15,11.20
2006,06,23,02,16,11.20
2006,06,23,02,17,11.20
2006,06,23,02,18,11.20
2006,06,23,02,19,11.20
2006,06,23,02,20,11.20
2006,06,23,02,21,11.20
2006,06,23,02,22,11.20
2006,06,23,02,23,11.20
2006,06,23,02,24,11.20
2006,06,23,02,25,11.20
2006,06,23,02,26,11.10
2006,06,23,02,27,11.10
2006,06,23,02,28,11.10
2006,06,23,02,29,11.10
2006,06,23,02,30,11.10
2006,06,23,02,31,11.10
2006,06,23,02,32,11.10
2006,06,23,02,33,11.10
2006,06,23,02,34,11.10
2006,06,23,02,35,11.10
2006,06,23,02,36,11.10
2006,06,23,02,37,11.10
2006,06,23,02,38,11.10
2006,06,23,02,39,11.10
2006,06,23,02,40,11.10
2006,06,23,02,41,11.10
2006,06,23,02,42,11.10
2006,06,23,02,43,11.00
2006,06,23,02,44,10.90
2006,06,23,02,45,10.90
2006,06,23,02,46,10.90
2006,06,23,02,47,10.90
2006,06,23,02,48,10.90
2006,06,23,02,49,10.90
2006,06,23,02,50,10.90
2006,06,23,02,51,10.90
2006,06,23,02,52,10.90
2006,06,23,02,53,10.90
2006,06,23,02,54,10.90
2006,06,23,02,55,10.90
2006,06,23,02,56,10.90
2006,06,23,02,57,10.90
2006,06,23,02,58,10.90
2006,06,23,02,59,10.90
2006,06,23,03,00,10.90
2006,06,23,03,01,10.90
2006,06,23,03,02,10.90
2006,06,23,03,03,10.90
2006,06,23,03,04,10.90
2006,06,23,03,05,10.90
2006,06,23,03,06,10.90
2006,06,23,03,07,10.90
2006,06,23,03,08,10.90
2006,06,23,03,09,10.90
2006,06,23,03,10,10.90
2006,06,23,03,11,10.90
2006,06,23,03,12,10.90
2006,06,23,03,13,10.90
2006,06,23,03,14,10.90
2006,06,23,03,15,10.90
2006,06,23,03,16,10.90
2006,06,23,03,17,10.90
2006,06,23,03,18,10.90
2006,06,23,03,19,10.90
2006,06,23,03,20,10.90
2006,06,23,03,21,10.90
2006,06,23,03,22,10.90
2006,06,23,03,23,10.90
2006,06,23,03,24,10.90
2006,06,23,03,25,10.90
2006,06,23,03,26,10.90
2006,06,23,03,27,10.90
2006,06,23,03,28,10.90
2006,06,23,03,29,10.90
2006,06,23,03,30,10.90
2006,06,23,03,31,10.90
2006,06,23,03,32,10.90
2006,06,23,03,33,10.90
2006,06,23,03,34,10.90
2006,06,23,03,35,10.90
2006,06,23,03,36,10.90
2006,06,23,03,37,10.90
2006,06,23,03,38,10.90
2006,06,23,03,39,10.90
2006,06,23,03,40,10.90
2006,06,23,03,41,10.90
2006,06,23,03,42,10.90
2006,06,23,03,43,10.90
2006,06,23,03,44,10.90
2006,06,23,03,45,10.90
2006,06,23,03,46,10.80
2006,06,23,03,47,10.80
2006,06,23,03,48,10.80
2006,06,23,03,49,10.80
2006,06,23,03,50,10.80
2006,06,23,03,51,10.90
2006,06,23,03,52,10.90
2006,06,23,03,53,10.90
2006,06,23,03,54,10.90
2006,06,23,03,55,10.90
2006,06,23,03,56,10.90
2006,06,23,03,57,10.90
2006,06,23,03,58,10.90
2006,06,23,03,59,10.90
2006,06,23,04,00,10.90
2006,06,23,04,01,10.90
2006,06,23,04,02,10.90
2006,06,23,04,03,10.90
2006,06,23,04,04,10.90
2006,06,23,04,05,10.90
2006,06,23,04,06,10.90
2006,06,23,04,07,10.90
2006,06,23,04,08,10.90
2006,06,23,04,09,10.90
2006,06,23,04,10,10.90
2006,06,23,04,11,10.90
2006,06,23,04,12,10.90
2006,06,23,04,13,10.90
2006,06,23,04,14,10.90
2006,06,23,04,15,10.90
2006,06,23,04,16,10.90
2006,06,23,04,17,10.90
2006,06,23,04,18,10.90
2006,06,23,04,19,10.90
2006,06,23,04,20,10.90
2006,06,23,04,21,10.90
2006,06,23,04,22,10.90
2006,06,23,04,23,10.90
2006,06,23,04,24,10.90
2006,06,23,04,25,10.90
2006,06,23,04,26,10.90
2006,06,23,04,27,10.90
2006,06,23,04,28,10.80
2006,06,23,04,29,10.80
2006,06,23,04,30,10.80
2006,06,23,04,31,10.80
2006,06,23,04,32,10.80
2006,06,23,04,33,10.80
2006,06,23,04,34,10.80
2006,06,23,04,35,10.80
2006,06,23,04,36,10.80
2006,06,23,04,37,10.80
2006,06,23,04,38,10.70
2006,06,23,04,39,10.70
2006,06,23,04,40,10.70
2006,06,23,04,41,10.70
2006,06,23,04,42,10.70
2006,06,23,04,43,10.70
2006,06,23,04,44,10.70
2006,06,23,04,45,10.60
2006,06,23,04,46,10.70
2006,06,23,04,47,10.70
2006,06,23,04,48,10.70
2006,06,23,04,49,10.70
2006,06,23,04,50,10.70
2006,06,23,04,51,10.70
2006,06,23,04,52,10.70
2006,06,23,04,53,10.70
2006,06,23,04,54,10.70
2006,06,23,04,55,10.70
2006,06,23,04,56,10.70
2006,06,23,04,57,10.70
2006,06,23,04,58,10.70
2006,06,23,04,59,10.70
2006,06,23,05,00,10.70
2006,06,23,05,01,10.70
2006,06,23,05,02,10.70
2006,06,23,05,03,10.70
2006,06,23,05,04,10.70
2006,06,23,05,05,10.70
2006,06,23,05,06,10.70
2006,06,23,05,07,10.70
2006,06,23,05,08,10.70
2006,06,23,05,09,10.70
2006,06,23,05,10,10.70
2006,06,23,05,11,10.70
2006,06,23,05,12,10.70
2006,06,23,05,13,10.70
2006,06,23,05,14,10.70
2006,06,23,05,15,10.70
2006,06,23,05,16,10.70
2006,06,23,05,17,10.70
2006,06,23,05,18,10.70
2006,06,23,05,19,10.70
2006,06,23,05,20,10.60
2006,06,23,05,21,10.60
2006,06,23,05,22,10.60
2006,06,23,05,23,10.60
2006,06,23,05,24,10.60
2006,06,23,05,25,10.60
2006,06,23,05,26,10.60
2006,06,23,05,27,10.60
2006,06,23,05,28,10.60
2006,06,23,05,29,10.60
2006,06,23,05,30,10.60
2006,06,23,05,31,10.60
2006,06,23,05,32,10.60
2006,06,23,05,33,10.60
2006,06,23,05,34,10.60
2006,06,23,05,35,10.60
2006,06,23,05,36,10.60
2006,06,23,05,37,10.60
2006,06,23,05,38,10.60
2006,06,23,05,39,10.60
2006,06,23,05,40,10.60
2006,06,23,05,41,10.60
2006,06,23,05,42,10.60
2006,06,23,05,43,10.60
2006,06,23,05,44,10.60
2006,06,23,05,45,10.60
2006,06,23,05,46,10.60
2006,06,23,05,47,10.60
2006,06,23,05,48,10.60
2006,06,23,05,49,10.60
2006,06,23,05,50,10.60
2006,06,23,05,51,10.60
2006,06,23,05,52,10.60
2006,06,23,05,53,10.60
2006,06,23,05,54,10.60
2006,06,23,05,55,10.60
2006,06,23,05,56,10.70
2006,06,23,05,57,10.70
2006,06,23,05,58,10.80
2006,06,23,05,59,10.80
2006,06,23,06,00,10.80
2006,06,23,06,01,10.90
2006,06,23,06,02,10.90
2006,06,23,06,03,10.90
2006,06,23,06,04,11.00
2006,06,23,06,05,11.10
2006,06,23,06,06,11.10
2006,06,23,06,07,11.20
2006,06,23,06,08,11.30
2006,06,23,06,09,11.40
2006,06,23,06,10,11.50
2006,06,23,06,11,11.60
2006,06,23,06,12,11.60
2006,06,23,06,13,11.70
2006,06,23,06,14,11.80
2006,06,23,06,15,11.90
2006,06,23,06,16,11.90
2006,06,23,06,17,12.00
2006,06,23,06,18,12.10
2006,06,23,06,19,12.20
2006,06,23,06,20,12.20
2006,06,23,06,21,12.30
2006,06,23,06,22,12.30
2006,06,23,06,23,12.30
2006,06,23,06,24,12.30
2006,06,23,06,25,12.30
2006,06,23,06,26,12.30
2006,06,23,06,27,12.30
2006,06,23,06,28,12.20
2006,06,23,06,29,12.20
2006,06,23,06,30,12.20
2006,06,23,06,31,12.20
2006,06,23,06,32,12.20
2006,06,23,06,33,12.20
2006,06,23,06,34,12.30
2006,06,23,06,35,12.30
2006,06,23,06,36,12.40
2006,06,23,06,37,12.40
2006,06,23,06,38,12.50
2006,06,23,06,39,12.60
2006,06,23,06,40,12.70
2006,06,23,06,41,12.70
2006,06,23,06,42,12.70
2006,06,23,06,43,12.80
2006,06,23,06,44,12.80
2006,06,23,06,45,12.80
2006,06,23,06,46,12.80
2006,06,23,06,47,12.80
2006,06,23,06,48,12.80
2006,06,23,06,49,12.80
2006,06,23,06,50,12.70
2006,06,23,06,51,12.70
2006,06,23,06,52,12.60
2006,06,23,06,53,12.50
2006,06,23,06,54,12.50
2006,06,23,06,55,12.50
2006,06,23,06,56,12.50
2006,06,23,06,57,12.40
2006,06,23,06,58,12.40
2006,06,23,06,59,12.40
2006,06,23,07,00,12.40
2006,06,23,07,01,12.40
2006,06,23,07,02,12.40
2006,06,23,07,03,12.40
2006,06,23,07,04,12.40
2006,06,23,07,05,12.40
2006,06,23,07,06,12.50
2006,06,23,07,07,12.50
2006,06,23,07,08,12.60
2006,06,23,07,09,12.70
2006,06,23,07,10,12.80
2006,06,23,07,11,13.00
2006,06,23,07,12,13.10
2006,06,23,07,13,13.20
2006,06,23,07,14,13.30
2006,06,23,07,15,13.40
2006,06,23,07,16,13.50
2006,06,23,07,17,13.60
2006,06,23,07,18,13.70
2006,06,23,07,19,13.70
2006,06,23,07,20,13.70
2006,06,23,07,21,13.70
2006,06,23,07,22,13.70
2006,06,23,07,23,13.70
2006,06,23,07,24,13.70
2006,06,23,07,25,13.70
2006,06,23,07,26,13.70
2006,06,23,07,27,13.70
2006,06,23,07,28,13.70
2006,06,23,07,29,13.80
2006,06,23,07,30,13.80
2006,06,23,07,31,13.90
2006,06,23,07,32,14.00
2006,06,23,07,33,14.10
2006,06,23,07,34,14.20
2006,06,23,07,35,14.20
2006,06,23,07,36,14.30
2006,06,23,07,37,14.30
2006,06,23,07,38,14.40
2006,06,23,07,39,14.50
2006,06,23,07,40,14.50
2006,06,23,07,41,14.60
2006,06,23,07,42,14.60
2006,06,23,07,43,14.70
2006,06,23,07,44,14.80
2006,06,23,07,45,14.80
2006,06,23,07,46,14.80
2006,06,23,07,47,14.80
2006,06,23,07,48,14.80
2006,06,23,07,49,14.80
2006,06,23,07,50,14.80
2006,06,23,07,51,14.80
2006,06,23,07,52,14.80
2006,06,23,07,53,14.80
2006,06,23,07,54,14.80
2006,06,23,07,55,14.80
2006,06,23,07,56,14.80
2006,06,23,07,57,14.90
2006,06,23,07,58,14.90
2006,06,23,07,59,15.00
2006,06,23,08,00,15.00
2006,06,23,08,01,15.10
2006,06,23,08,02,15.10
2006,06,23,08,03,15.20
2006,06,23,08,04,15.30
2006,06,23,08,05,15.30
2006,06,23,08,06,15.50
2006,06,23,08,07,15.50
2006,06,23,08,08,15.60
2006,06,23,08,09,15.60
2006,06,23,08,10,15.50
2006,06,23,08,11,15.50
2006,06,23,08,12,15.50
2006,06,23,08,13,15.60
2006,06,23,08,14,15.60
2006,06,23,08,15,15.60
2006,06,23,08,16,15.60
2006,06,23,08,17,15.70
2006,06,23,08,18,15.70
2006,06,23,08,19,15.70
2006,06,23,08,20,15.60
2006,06,23,08,21,15.60
2006,06,23,08,22,15.60
2006,06,23,08,23,15.70
2006,06,23,08,24,15.70
2006,06,23,08,25,15.80
2006,06,23,08,26,15.80
2006,06,23,08,27,15.80
2006,06,23,08,28,15.80
2006,06,23,08,29,15.70
2006,06,23,08,30,15.50
2006,06,23,08,31,15.30
2006,06,23,08,32,15.10
2006,06,23,08,33,14.90
2006,06,23,08,34,14.70
2006,06,23,08,35,14.60
2006,06,23,08,36,14.60
2006,06,23,08,37,14.50
2006,06,23,08,38,14.40
2006,06,23,08,39,14.20
2006,06,23,08,40,14.20
2006,06,23,08,41,14.20
2006,06,23,08,42,14.20
2006,06,23,08,43,14.10
2006,06,23,08,44,14.10
2006,06,23,08,45,14.10
2006,06,23,08,46,14.10
2006,06,23,08,47,14.10
2006,06,23,08,48,14.10
2006,06,23,08,49,14.10
2006,06,23,08,50,14.20
2006,06,23,08,51,14.10
2006,06,23,08,52,14.10
2006,06,23,08,53,14.00
2006,06,23,08,54,14.00
2006,06,23,08,55,14.10
2006,06,23,08,56,14.10
2006,06,23,08,57,14.10
2006,06,23,08,58,14.10
2006,06,23,08,59,14.20
2006,06,23,09,00,14.20
2006,06,23,09,01,14.20
2006,06,23,09,02,14.20
2006,06,23,09,03,14.30
2006,06,23,09,04,14.50
2006,06,23,09,05,14.60
2006,06,23,09,06,14.70
2006,06,23,09,07,14.80
2006,06,23,09,08,15.00
2006,06,23,09,09,15.10
2006,06,23,09,10,15.30
2006,06,23,09,11,15.50
2006,06,23,09,12,15.60
2006,06,23,09,13,15.70
2006,06,23,09,14,15.80
2006,06,23,09,15,15.90
2006,06,23,09,16,16.00
2006,06,23,09,17,16.10
2006,06,23,09,18,16.10
2006,06,23,09,19,16.10
2006,06,23,09,20,16.30
2006,06,23,09,21,16.40
2006,06,23,09,22,16.40
2006,06,23,09,23,16.60
2006,06,23,09,24,16.60
2006,06,23,09,25,16.60
2006,06,23,09,26,16.60
2006,06,23,09,27,16.60
2006,06,23,09,28,16.60
2006,06,23,09,29,16.60
2006,06,23,09,30,16.60
2006,06,23,09,31,16.70
2006,06,23,09,32,16.80
2006,06,23,09,33,16.90
2006,06,23,09,34,17.00
2006,06,23,09,35,17.10
2006,06,23,09,36,17.10
2006,06,23,09,37,17.10
2006,06,23,09,38,17.20
2006,06,23,09,39,17.20
2006,06,23,09,40,17.20
2006,06,23,09,41,17.30
2006,06,23,09,42,17.30
2006,06,23,09,43,17.40
2006,06,23,09,44,17.30
2006,06,23,09,45,17.30
2006,06,23,09,46,17.30
2006,06,23,09,47,17.30
2006,06,23,09,48,17.30
2006,06,23,09,49,17.30
2006,06,23,09,50,17.40
2006,06,23,09,51,17.40
2006,06,23,09,52,17.40
2006,06,23,09,53,17.30
2006,06,23,09,54,17.30
2006,06,23,09,55,17.30
2006,06,23,09,56,17.30
2006,06,23,09,57,17.30
2006,06,23,09,58,17.40
2006,06,23,09,59,17.40
2006,06,23,10,00,17.40
2006,06,23,10,01,17.50
2006,06,23,10,02,17.60
2006,06,23,10,03,17.70
2006,06,23,10,04,17.70
2006,06,23,10,05,17.80
2006,06,23,10,06,17.70
2006,06,23,10,07,17.70
2006,06,23,10,08,17.70
2006,06,23,10,09,17.70
2006,06,23,10,10,17.70
2006,06,23,10,11,17.70
2006,06,23,10,12,17.80
2006,06,23,10,13,17.90
2006,06,23,10,14,17.90
2006,06,23,10,15,18.00
2006,06,23,10,16,18.10
2006,06,23,10,17,18.10
2006,06,23,10,18,18.10
2006,06,23,10,19,17.80
2006,06,23,10,20,17.40
2006,06,23,10,21,17.00
2006,06,23,10,22,16.70
2006,06,23,10,23,16.50
2006,06,23,10,24,16.20
2006,06,23,10,25,16.10
2006,06,23,10,26,16.10
2006,06,23,10,27,16.10
2006,06,23,10,28,16.00
2006,06,23,10,29,15.90
2006,06,23,10,30,15.90
2006,06,23,10,31,15.80
2006,06,23,10,32,15.70
2006,06,23,10,33,15.60
2006,06,23,10,34,15.60
2006,06,23,10,35,15.50
2006,06,23,10,36,15.50
2006,06,23,10,37,15.60
2006,06,23,10,38,15.60
2006,06,23,10,39,15.70
2006,06,23,10,40,15.80
2006,06,23,10,41,15.70
2006,06,23,10,42,15.60
2006,06,23,10,43,15.60
2006,06,23,10,44,15.50
2006,06,23,10,45,15.50
2006,06,23,10,46,15.40
2006,06,23,10,47,15.40
2006,06,23,10,48,15.30
2006,06,23,10,49,15.30
2006,06,23,10,50,15.30
2006,06,23,10,51,15.30
2006,06,23,10,52,15.30
2006,06,23,10,53,15.30
2006,06,23,10,54,15.40
2006,06,23,10,55,15.40
2006,06,23,10,56,15.40
2006,06,23,10,57,15.40
2006,06,23,10,58,15.40
2006,06,23,10,59,15.50
2006,06,23,11,00,15.50
2006,06,23,11,01,15.60
2006,06,23,11,02,15.60
2006,06,23,11,03,15.70
2006,06,23,11,04,15.80
2006,06,23,11,05,15.80
2006,06,23,11,06,15.80
2006,06,23,11,07,15.80
2006,06,23,11,08,15.90
2006,06,23,11,09,16.10
2006,06,23,11,10,16.30
2006,06,23,11,11,16.40
2006,06,23,11,12,16.40
2006,06,23,11,13,16.60
2006,06,23,11,14,16.70
2006,06,23,11,15,16.70
2006,06,23,11,16,16.70
2006,06,23,11,17,16.70
2006,06,23,11,18,16.70
2006,06,23,11,19,16.70
2006,06,23,11,20,16.70
2006,06,23,11,21,16.70
2006,06,23,11,22,16.70
2006,06,23,11,23,16.70
2006,06,23,11,24,16.60
2006,06,23,11,25,16.60
2006,06,23,11,26,16.70
2006,06,23,11,27,16.60
2006,06,23,11,28,16.50
2006,06,23,11,29,16.40
2006,06,23,11,30,16.50
2006,06,23,11,31,16.60
2006,06,23,11,32,16.70
2006,06,23,11,33,16.90
2006,06,23,11,34,17.00
2006,06,23,11,35,16.90
2006,06,23,11,36,16.90
2006,06,23,11,37,17.00
2006,06,23,11,38,17.10
2006,06,23,11,39,17.30
2006,06,23,11,40,17.40
2006,06,23,11,41,17.70
2006,06,23,11,42,17.90
2006,06,23,11,43,18.00
2006,06,23,11,44,18.00
2006,06,23,11,45,17.90
2006,06,23,11,46,17.70
2006,06,23,11,47,17.70
2006,06,23,11,48,17.70
2006,06,23,11,49,17.80
2006,06,23,11,50,17.80
2006,06,23,11,51,17.80
2006,06,23,11,52,17.70
2006,06,23,11,53,17.70
2006,06,23,11,54,17.60
2006,06,23,11,55,17.70
2006,06,23,11,56,17.80
2006,06,23,11,57,18.00
2006,06,23,11,58,18.30
2006,06,23,11,59,18.50
2006,06,23,12,00,18.70
2006,06,23,12,01,18.90
2006,06,23,12,02,19.10
2006,06,23,12,03,19.10
2006,06,23,12,04,19.10
2006,06,23,12,05,19.10
2006,06,23,12,06,19.20
2006,06,23,12,07,19.30
2006,06,23,12,08,19.30
2006,06,23,12,09,19.30
2006,06,23,12,10,19.40
2006,06,23,12,11,19.40
2006,06,23,12,12,19.40
2006,06,23,12,13,19.40
2006,06,23,12,14,19.40
2006,06,23,12,15,19.50
2006,06,23,12,16,19.60
2006,06,23,12,17,19.60
2006,06,23,12,18,19.70
2006,06,23,12,19,19.90
2006,06,23,12,20,19.90
2006,06,23,12,21,19.90
2006,06,23,12,22,19.80
2006,06,23,12,23,19.70
2006,06,23,12,24,19.60
2006,06,23,12,25,19.40
2006,06,23,12,26,19.10
2006,06,23,12,27,18.90
2006,06,23,12,28,18.80
2006,06,23,12,29,18.80
2006,06,23,12,30,18.80
2006,06,23,12,31,19.00
2006,06,23,12,32,19.10
2006,06,23,12,33,19.30
2006,06,23,12,34,19.50
2006,06,23,12,35,19.70
2006,06,23,12,36,19.90
2006,06,23,12,37,20.10
2006,06,23,12,38,20.20
2006,06,23,12,39,19.90
2006,06,23,12,40,19.60
2006,06,23,12,41,19.20
2006,06,23,12,42,19.00
2006,06,23,12,43,18.80
2006,06,23,12,44,18.70
2006,06,23,12,45,18.60
2006,06,23,12,46,18.50
2006,06,23,12,47,18.50
2006,06,23,12,48,18.40
2006,06,23,12,49,18.30
2006,06,23,12,50,18.30
2006,06,23,12,51,18.20
2006,06,23,12,52,18.10
2006,06,23,12,53,17.80
2006,06,23,12,54,17.50
2006,06,23,12,55,17.20
2006,06,23,12,56,16.90
2006,06,23,12,57,16.80
2006,06,23,12,58,16.70
2006,06,23,12,59,16.80
2006,06,23,13,00,16.80
2006,06,23,13,01,16.80
2006,06,23,13,02,16.80
2006,06,23,13,03,16.80
2006,06,23,13,04,16.80
2006,06,23,13,05,16.70
2006,06,23,13,06,16.70
2006,06,23,13,07,16.70
2006,06,23,13,08,16.70
2006,06,23,13,09,16.70
2006,06,23,13,10,16.70
2006,06,23,13,11,16.70
2006,06,23,13,12,16.70
2006,06,23,13,13,16.70
2006,06,23,13,14,16.60
2006,06,23,13,15,16.60
2006,06,23,13,16,16.60
2006,06,23,13,17,16.50
2006,06,23,13,18,16.40
2006,06,23,13,19,16.40
2006,06,23,13,20,16.30
2006,06,23,13,21,16.30
2006,06,23,13,22,16.30
2006,06,23,13,23,16.30
2006,06,23,13,24,16.40
2006,06,23,13,25,16.40
2006,06,23,13,26,16.40
2006,06,23,13,27,16.50
2006,06,23,13,28,16.70
2006,06,23,13,29,16.80
2006,06,23,13,30,16.80
2006,06,23,13,31,16.90
2006,06,23,13,32,17.10
2006,06,23,13,33,17.30
2006,06,23,13,34,17.40
2006,06,23,13,35,17.50
2006,06,23,13,36,17.50
2006,06,23,13,37,17.50
2006,06,23,13,38,17.50
2006,06,23,13,39,17.40
2006,06,23,13,40,17.30
2006,06,23,13,41,17.30
2006,06,23,13,42,17.40
2006,06,23,13,43,17.30
2006,06,23,13,44,17.30
2006,06,23,13,45,17.30
2006,06,23,13,46,17.30
2006,06,23,13,47,17.40
2006,06,23,13,48,17.40
2006,06,23,13,49,17.40
2006,06,23,13,50,17.40
2006,06,23,13,51,17.30
2006,06,23,13,52,17.10
2006,06,23,13,53,16.90
2006,06,23,13,54,16.80
2006,06,23,13,55,16.70
2006,06,23,13,56,16.70
2006,06,23,13,57,16.70
2006,06,23,13,58,16.60
2006,06,23,13,59,16.60
2006,06,23,14,00,16.70
2006,06,23,14,01,16.70
2006,06,23,14,02,16.70
2006,06,23,14,03,16.70
2006,06,23,14,04,16.70
2006,06,23,14,05,16.70
2006,06,23,14,06,16.70
2006,06,23,14,07,16.70
2006,06,23,14,08,16.80
2006,06,23,14,09,16.80
2006,06,23,14,10,16.70
2006,06,23,14,11,16.70
2006,06,23,14,12,16.70
2006,06,23,14,13,16.90
2006,06,23,14,14,16.90
2006,06,23,14,15,16.80
2006,06,23,14,16,16.80
2006,06,23,14,17,16.90
2006,06,23,14,18,17.10
2006,06,23,14,19,17.20
2006,06,23,14,20,17.40
2006,06,23,14,21,17.50
2006,06,23,14,22,17.70
2006,06,23,14,23,17.80
2006,06,23,14,24,17.80
2006,06,23,14,25,17.80
2006,06,23,14,26,17.80
2006,06,23,14,27,17.90
2006,06,23,14,28,17.90
2006,06,23,14,29,17.90
2006,06,23,14,30,17.90
2006,06,23,14,31,18.10
2006,06,23,14,32,18.20
2006,06,23,14,33,18.20
2006,06,23,14,34,18.20
2006,06,23,14,35,18.20
2006,06,23,14,36,18.20
2006,06,23,14,37,18.20
2006,06,23,14,38,18.10
2006,06,23,14,39,18.10
2006,06,23,14,40,18.00
2006,06,23,14,41,17.90
2006,06,23,14,42,17.80
2006,06,23,14,43,17.90
2006,06,23,14,44,17.90
2006,06,23,14,45,17.90
2006,06,23,14,46,17.90
2006,06,23,14,47,17.90
2006,06,23,14,48,17.90
2006,06,23,14,49,18.00
2006,06,23,14,50,18.20
2006,06,23,14,51,18.30
2006,06,23,14,52,18.50
2006,06,23,14,53,18.60
2006,06,23,14,54,18.60
2006,06,23,14,55,18.60
2006,06,23,14,56,18.60
2006,06,23,14,57,18.60
2006,06,23,14,58,18.50
2006,06,23,14,59,18.50
2006,06,23,15,00,18.50
2006,06,23,15,01,18.50
2006,06,23,15,02,18.50
2006,06,23,15,03,18.40
2006,06,23,15,04,18.30
2006,06,23,15,05,18.20
2006,06,23,15,06,18.20
2006,06,23,15,07,18.20
2006,06,23,15,08,18.10
2006,06,23,15,09,18.10
2006,06,23,15,10,18.10
2006,06,23,15,11,18.10
2006,06,23,15,12,18.00
2006,06,23,15,13,17.90
2006,06,23,15,14,17.70
2006,06,23,15,15,17.60
2006,06,23,15,16,17.60
2006,06,23,15,17,17.60
2006,06,23,15,18,17.70
2006,06,23,15,19,17.80
2006,06,23,15,20,17.80
2006,06,23,15,21,17.80
2006,06,23,15,22,17.90
2006,06,23,15,23,17.90
2006,06,23,15,24,17.90
2006,06,23,15,25,17.90
2006,06,23,15,26,18.00
2006,06,23,15,27,18.20
2006,06,23,15,28,18.40
2006,06,23,15,29,18.50
2006,06,23,15,30,18.50
2006,06,23,15,31,18.50
2006,06,23,15,32,18.50
2006,06,23,15,33,18.50
2006,06,23,15,34,18.40
2006,06,23,15,35,18.30
2006,06,23,15,36,18.20
2006,06,23,15,37,18.20
2006,06,23,15,38,18.10
2006,06,23,15,39,18.20
2006,06,23,15,40,18.20
2006,06,23,15,41,18.30
2006,06,23,15,42,18.40
2006,06,23,15,43,18.30
2006,06,23,15,44,18.30
2006,06,23,15,45,18.20
2006,06,23,15,46,18.20
2006,06,23,15,47,18.20
2006,06,23,15,48,18.20
2006,06,23,15,49,18.20
2006,06,23,15,50,18.30
2006,06,23,15,51,18.40
2006,06,23,15,52,18.50
2006,06,23,15,53,18.50
2006,06,23,15,54,18.40
2006,06,23,15,55,18.30
2006,06,23,15,56,18.10
2006,06,23,15,57,17.90
2006,06,23,15,58,17.90
2006,06,23,15,59,17.90
2006,06,23,16,00,17.90
2006,06,23,16,01,18.10
2006,06,23,16,02,18.20
2006,06,23,16,03,18.40
2006,06,23,16,04,18.50
2006,06,23,16,05,18.60
2006,06,23,16,06,18.50
2006,06,23,16,07,18.50
2006,06,23,16,08,18.50
2006,06,23,16,09,18.60
2006,06,23,16,10,18.60
2006,06,23,16,11,18.60
2006,06,23,16,12,18.70
2006,06,23,16,13,18.90
2006,06,23,16,14,18.90
2006,06,23,16,15,19.00
2006,06,23,16,16,19.10
2006,06,23,16,17,19.10
2006,06,23,16,18,19.10
2006,06,23,16,19,19.20
2006,06,23,16,20,19.20
2006,06,23,16,21,19.20
2006,06,23,16,22,19.20
2006,06,23,16,23,19.30
2006,06,23,16,24,19.30
2006,06,23,16,25,19.30
2006,06,23,16,26,19.40
2006,06,23,16,27,19.40
2006,06,23,16,28,19.50
2006,06,23,16,29,19.50
2006,06,23,16,30,19.60
2006,06,23,16,31,19.60
2006,06,23,16,32,19.60
2006,06,23,16,33,19.40
2006,06,23,16,34,19.40
2006,06,23,16,35,19.40
2006,06,23,16,36,19.40
2006,06,23,16,37,19.40
2006,06,23,16,38,19.40
2006,06,23,16,39,19.40
2006,06,23,16,40,19.30
2006,06,23,16,41,19.30
2006,06,23,16,42,19.30
2006,06,23,16,43,19.30
2006,06,23,16,44,19.30
2006,06,23,16,45,19.30
2006,06,23,16,46,19.40
2006,06,23,16,47,19.50
2006,06,23,16,48,19.60
2006,06,23,16,49,19.60
2006,06,23,16,50,19.50
2006,06,23,16,51,19.50
2006,06,23,16,52,19.50
2006,06,23,16,53,19.40
2006,06,23,16,54,19.40
2006,06,23,16,55,19.30
2006,06,23,16,56,19.30
2006,06,23,16,57,19.30
2006,06,23,16,58,19.30
2006,06,23,16,59,19.30
2006,06,23,17,00,19.20
2006,06,23,17,01,19.10
2006,06,23,17,02,19.00
2006,06,23,17,03,18.90
2006,06,23,17,04,18.90
2006,06,23,17,05,18.90
2006,06,23,17,06,18.90
2006,06,23,17,07,19.00
2006,06,23,17,08,19.10
2006,06,23,17,09,19.30
2006,06,23,17,10,19.40
2006,06,23,17,11,19.50
2006,06,23,17,12,19.60
2006,06,23,17,13,19.60
2006,06,23,17,14,19.60
2006,06,23,17,15,19.70
2006,06,23,17,16,19.80
2006,06,23,17,17,19.80
2006,06,23,17,18,19.70
2006,06,23,17,19,19.70